Regional Weather Roundup
Issued by NWS

Home | Current Version | Previous Version | Graphics & Text | Print | Product List | Glossary On
Versions: 1 2 3 4 5 6 7 8 9 10 11 12 13 14 15 16 17 18 19 20 21 22 23 24 25 26 27 28 29 30 31 32 33 34 35 36 37 38 39 40 41 42 43 44 45 46 47 48 49 50
156
ASUS43 KFSD 271510
RWRSD

WEATHER ROUNDUP FOR SOUTH DAKOTA
NATIONAL WEATHER SERVICE SIOUX FALLS SD
1000 AM CDT SAT MAY 27 2017

NOTE: "FAIR" INDICATES FEW OR NO CLOUDS BELOW 12,000 FEET WITH NO
SIGNIFICANT WEATHER AND/OR OBSTRUCTIONS TO VISIBILITY.


SDZ001>005-009-010-012>017-271600-
NORTHWEST AND NORTH CENTRAL SOUTH DAKOTA

CITY           SKY/WX    TMP DP  RH WIND       PRES   REMARKS
BUFFALO          N/A     61  40  45 W16       29.93R
FAITH            N/A     62  42  47 NW13      29.96S
MOBRIDGE       SUNNY     64  43  46 W7        29.90S
$$

SDZ012>016-024>037-041>051-057-063-072>074-271600-
SOUTHWEST AND SOUTH CENTRAL SOUTH DAKOTA

CITY           SKY/WX    TMP DP  RH WIND       PRES   REMARKS
RAPID CTY ARPT SUNNY     61  43  51 N14       30.01S
PIERRE         CLOUDY    57  51  80 W8        29.97R
CUSTER         CLOUDY    49  34  56 N7        30.07R
ELLSWORTH AFB  SUNNY     61  40  46 NW17      30.01R
PHILIP         CLOUDY    60  51  72 W10       29.99R
PINE RIDGE     CLOUDY    55  51  86 NW10      30.04R
SPEARFISH      FAIR      57  39  51 NW14      30.05R
WINNER         CLOUDY    56  51  84 NW8       30.00R
$$

SDZ004>011-016>023-039-040-271600-
NORTHEAST SOUTH DAKOTA

CITY           SKY/WX    TMP DP  RH WIND       PRES   REMARKS
ABERDEEN       MOSUNNY   65  42  43 SW14      29.90S
WATERTOWN      CLOUDY    62  48  60 W6        29.91R
SISSETON         N/A     69  47  45 W17       29.86S
$$

SDZ017-020-022-023-036>040-048>070-271600-
SOUTHEAST SOUTH DAKOTA

CITY           SKY/WX    TMP DP  RH WIND       PRES   REMARKS
SIOUX FALLS    CLOUDY    59  54  83 W3        29.94R
HURON          CLOUDY    65  45  48 NW12      29.92S
CHAMBERLAIN    CLOUDY    61  50  67 NW8       29.97R
MITCHELL       CLOUDY    61  53  75 SW8       29.95R
YANKTON        CLOUDY    58  53  84 NW5       29.96R
$$

ABBREVIATIONS USED IN REMARKS
   TC - TEMPERATURE IN CELSIUS
  WCI - WIND CHILL INDEX
   HX - HEAT INDEX
  VSB - VISIBILITY





USA.gov is the U.S. government's official web portal to all federal, state and local government web resources and services.